Regional Weather Roundup
Issued by NWS

Home | Current Version | Previous Version | Graphics & Text | Print | Product List | Glossary On
Versions: 1 2 3 4 5 6 7 8 9 10 11 12 13 14 15 16 17 18 19 20 21 22 23 24 25 26 27 28 29 30 31 32 33 34 35 36 37 38 39 40 41 42 43 44 45 46 47 48 49 50
000
ASUS43 KMPX 020910
RWRMN
WEATHER ROUNDUP FOR MINNESOTA
NATIONAL WEATHER SERVICE TWIN CITIES/CHANHASSEN MN
400 AM CDT THU JUL 02 2015


NOTE: "FAIR" INDICATES FEW OR NO CLOUDS BELOW 12,000 FEET WITH NO
SIGNIFICANT WEATHER AND/OR OBSTRUCTIONS TO VISIBILITY. N/A MEANS
CURRENT SKY AND/OR WEATHER CONDITIONS ARE NOT AVAILABLE.

MNZ060>063-068>070-021000-
   Twin Cities Metro

CITY           SKY/WX    TMP DP  RH WIND       PRES   REMARKS
TWIN CITIES    CLEAR     60  52  74 E3        30.00F
ST PAUL        CLEAR     57  55  93 CALM      30.01F
CRYSTAL        CLEAR     55  51  86 CALM      29.99F
BLAINE         CLEAR     55  54  94 CALM      30.00F
LAKEVILLE      CLEAR     50  50 100 CALM      30.00F
EDEN PRAIRIE   CLEAR     56  54  93 CALM      29.99F
SOUTH ST PAUL  CLEAR     58  55  89 CALM      30.00F
LAKE ELMO      FAIR      54  54 100 CALM      30.02S
$$
MNZ001>005-007-008-013>017-022>024-027-028-021000-
   Northwest Minnesota

CITY           SKY/WX    TMP DP  RH WIND       PRES   REMARKS
BEMIDJI        MOCLDY    60  57  90 W3        29.99S
HALLOCK        CLEAR     59  57  94 S7        29.93F
ROSEAU         CLEAR     61  55  82 SW6       29.96S
WARROAD        CLEAR     61  57  88 SW6       29.96S
THIEF RVR FALL CLEAR     59  54  82 S7        29.98S
CROOKSTON      CLEAR     59  55  88 S7        29.97S
FOSSTON        CLEAR     54  52  94 CALM      29.99S
DETROIT LAKES  CLEAR     59  55  88 S5        30.01S
MOORHEAD       CLEAR     55  54  94 SE6       29.99R
PARK RAPIDS    PTCLDY    61  55  81 SW3       30.00S
$$
MNZ006-009>011-018-025>026-021000-
   North Central Minnesota

CITY           SKY/WX    TMP DP  RH WIND       PRES   REMARKS
BAUDETTE       CLEAR     58  54  86 CALM      29.95S
FLAG ISLAND    CLEAR     66  59  77 SW6       29.93S
INTL FALLS     CLEAR     53  53 100 CALM      29.95S FOG
WASKISH        CLEAR     66  61  82 SW10      29.97S
BIG FORK       FOG       54  52  94 CALM      29.98S VSB 1/2
LONGVILLE      CLEAR     55  54  94 CALM      30.00S FOG
GRAND RAPIDS   CLEAR     63  55  77 W3        29.99F
CRANE LAKE     CLEAR     50  48  93 CALM      29.99R
ORR            CLEAR     57  54  88 CALM      29.96S
COOK           CLEAR     54  54 100 CALM      29.99S
WALKER         PTSUNNY   58  54  86 W5        29.99F
$$
MNZ012-019>021-037-021000-
   Northeast Minnesota

CITY           SKY/WX    TMP DP  RH WIND       PRES   REMARKS
DULUTH         CLOUDY    56  49  77 CALM      30.01R
ELY            CLEAR     48  46  93 CALM      30.00R
HIBBING        CLEAR     49  49 100 CALM      29.99S FOG
EVELETH        CLEAR     50  50 100 CALM      30.01S
DULUTH HARBOR  CLOUDY    61  55  82 CALM      30.01S
TWO HARBORS    CLEAR     52  46  82 SW1       29.99S
SILVER BAY     CLEAR     46  45  93 CALM      29.99S
GRAND MARAIS     N/A     49  47  93 CALM      29.99S
G MARAIS ARPRT CLEAR     46  39  76 W5        30.02S
$$
MNZ029>031-032-039>041-046>048-054>057-064-021000-
   West Central Minnesota

CITY           SKY/WX    TMP DP  RH WIND       PRES   REMARKS
FERGUS FALLS   CLEAR     57  54  88 S6        30.00R
WHEATON        CLEAR     55  52  88 S6        30.01R
MORRIS         CLEAR     55  54  94 SE5       30.00R
ALEXANDRIA     CLEAR     56  53  90 S3        30.03R
ELBOW LAKE     FAIR      56  54  91 SE6       30.00R
WADENA           N/A     55  54  94 CALM      30.00S
GLENWOOD       CLEAR     54  52  94 S3        30.02R
APPLETON       CLEAR     54  52  94 CALM      30.00R
BENSON         CLEAR     54  50  87 CALM      30.01R
ORTONVILLE     CLEAR     54  50  87 SE5       30.01R
MADISON          N/A     52  48  87 SE3       30.01R
WILLMAR        FAIR      55  52  88 CALM      30.03R
$$
MNZ033>034-036-042>043-049>051-058-059-021000-
   Central Minnesota

CITY           SKY/WX    TMP DP  RH WIND       PRES   REMARKS
ST CLOUD       CLEAR     51  50  96 S3        30.00F
SAUK CENTRE    FAIR      54  52  95 CALM      30.02R
PAYNESVILLE    CLEAR     48  48 100 CALM      30.02S
AITKIN         CLEAR     54  48  82 CALM      29.99F
PINE RIVER       N/A     63  55  77 CALM      30.03F
BRAINERD       CLOUDY    61  55  81 CALM      30.00F
STAPLES        CLOUDY    61  54  77 CALM      30.00S
LONG PRAIRIE   FAIR      54  52  94 CALM      30.01F
LITTLE FALLS   CLEAR     52  50  93 CALM      30.00F
LITCHFIELD     CLEAR     55  55 100 CALM      30.02R
BUFFALO        CLEAR     53  49  89 CALM      30.01F
MAPLE LAKE     CLEAR     53  51  96 CALM      30.02S
$$
MNZ037-044-045-052-053-021000-
   East Central Minnesota

CITY           SKY/WX    TMP DP  RH WIND       PRES   REMARKS
PRINCETON      CLEAR     54  52  94 CALM      30.01F
MORA             N/A     52  52 100 CALM      30.02F FOG
CAMBRIDGE      CLEAR     57  50  77 CALM      29.99F
RUSH CITY      CLOUDY    53  52  96 CALM      30.01F
MOOSE LAKE     FOG       52  52 100 CALM      30.00S VSB 1
HINCKLEY       FAIR      52  52 100 CALM      30.01S
CLOQUET        MOCLDY    52  48  87 CALM      30.01S
MCGREGOR       CLEAR     54  52  94 CALM      30.01S
$$
MNZ071>073-080-081-089-090-097-098-021000-
   Southwest Minnesota

CITY           SKY/WX    TMP DP  RH WIND       PRES   REMARKS
MONTEVIDEO     CLEAR     52  52 100 CALM      30.02R
GRANITE FALLS  PTCLDY    52  50  92 CALM      30.03R
CANBY          CLEAR     53  51  94 CALM      30.02R
MARSHALL       CLEAR     54  46  76 S5        30.00R
REDWOOD FALLS  CLEAR     53  52  96 CALM      30.01R
OLIVIA         CLEAR     50  46  87 CALM      30.01R
PIPESTONE      PTCLDY    55  54  94 SE5       30.00S
WINDOM         CLEAR     54  50  87 CALM      30.02R
WORTHINGTON    MOCLDY    54  48  82 SE6       30.02R
JACKSON        MOCLDY    54  50  87 SE5       30.02R
TRACY          CLEAR     57  51  79 S7        30.01R
SLAYTON        CLOUDY    54  54  99 CALM      30.02R
$$
MNZ065>067-074>077-082>085-091>093-021000-
   South Central Minnesota

CITY           SKY/WX    TMP DP  RH WIND       PRES   REMARKS
MANKATO        CLEAR     54  48  82 CALM      30.01R
NEW ULM        CLEAR     54  54 100 CALM      30.01R
ST JAMES       CLEAR     52  50  93 CALM      30.03R
FAIRMONT       CLEAR     52  46  82 CALM      30.01R
GLENCOE        CLEAR     52  51  97 CALM      30.00S
FARIBAULT      CLEAR     50  48  93 CALM      30.01S
OWATONNA       CLEAR     50  48  93 CALM      30.01S FOG
WASECA         CLEAR     48  46  93 CALM      30.02S
ALBERT LEA     CLEAR     48  48 100 CALM      30.00S FOG
$$
MNZ078>079-086>088-094>096-021000-
   Southeast Minnesota

CITY           SKY/WX    TMP DP  RH WIND       PRES   REMARKS
ROCHESTER      CLEAR     52  50  93 NE3       30.01F
RED WING       CLEAR     52  52 100 CALM      30.00S
STANTON        CLEAR     50  48  93 CALM      30.00F
DODGE CENTER   PTCLDY    50  48  93 CALM      30.01F
WINONA         PTCLDY    54  54 100 CALM      30.02R
AUSTIN         CLEAR     48  48 100 CALM      30.01S
PRESTON        CLEAR     51  49  94 CALM      30.02S
$$
ABBREVIATIONS USED IN REMARKS
   TC - TEMPERATURES IN CELSIUS
  WCI - WIND CHILL INDEX
   HX - HEAT INDEX
  VSB - VISIBILITY
$$


USA.gov is the U.S. government's official web portal to all federal, state and local government web resources and services.